Date String (YYYY-MM-DD hh:mm:ss) UTC,Instrument flags,absolute air pressure of the measurement (hPa),sample flow rate (lpm),inlet stack bypass flow (lpm),air temperature of the measurement (°C),ambient temperature measured by the external sensor (°C),aerosol sample conditioner tube jacket temperature (°C),OPC LED temperature (°C),internal box temperature (°C),relative humidity of the measurement (%),span deviation,mass concentration of particles derived from Lorenz-Mie calculation of OPC scattering (μg/m³),mass concentration of particles derived from Lorenz-Mie calculation of OPC scattering (μg/m³),mass concentration of particles derived from Lorenz-Mie calculation of OPC scattering (μg/m³)
DateTimeUTC,F1_M11,P_M11,Q1_M11,Q2_M11,T1_M11,T2_M11,T3_M11,T4_M11,T5_M11,U1_M11,ZSPAN_M11,X0_M11,X2_M11,X1_M11
2024-02-13 08:00:00,SystemResetWarning,0825.5,5.00,000.00,018.6,018.1,000.0,027.0,020.3,12.7,0000.0,0008.70,0004.70,0004.43
2024-02-13 08:01:00,SystemResetWarning,0825.5,5.00,000.00,018.6,018.1,000.0,027.0,020.3,12.5,0000.0,0008.64,0004.67,0004.40
2024-02-13 08:02:00,SystemResetWarning,0825.5,5.00,000.00,018.6,018.1,000.0,026.9,020.3,12.6,0000.0,0008.16,0004.67,0004.38
2024-02-13 08:03:00,SystemResetWarning,0825.5,4.99,000.00,018.6,018.1,000.0,026.9,020.3,12.9,0000.0,0007.70,0004.64,0004.35
2024-02-13 08:04:00,SystemResetWarning,0825.5,4.99,000.00,018.5,018.1,000.0,026.9,020.3,13.4,0000.0,0007.65,0004.57,0004.26
2024-02-13 08:05:00,SystemResetWarning,0825.4,5.00,000.00,018.6,018.1,000.0,026.9,020.3,13.3,0000.0,0007.52,0004.41,0004.10
2024-02-13 08:06:00,SystemResetWarning,0825.5,5.01,000.00,018.6,018.1,000.0,026.9,020.3,12.6,0000.0,0007.31,0004.25,0003.93
2024-02-13 08:07:00,SystemResetWarning,0825.5,5.01,000.00,018.6,018.1,000.0,026.9,020.3,12.5,0000.0,0007.11,0004.08,0003.76
2024-02-13 08:08:00,SystemResetWarning,0825.5,5.00,000.00,018.6,018.1,000.0,027.0,020.3,12.5,0000.0,0006.79,0003.88,0003.55
2024-02-13 08:09:00,SystemResetWarning,0825.5,5.00,000.00,018.6,018.1,000.0,027.0,020.3,12.7,0000.0,0005.63,0003.69,0003.37
2024-02-13 08:10:00,SystemResetWarning,0825.6,4.99,000.00,018.6,018.1,000.0,027.0,020.4,12.6,0000.0,0005.15,0003.56,0003.23
2024-02-13 08:11:00,SystemResetWarning,0825.6,4.99,000.00,018.6,018.1,000.0,027.0,020.4,12.7,0000.0,0004.79,0003.41,0003.11
2024-02-13 08:12:00,SystemResetWarning,0825.6,5.00,000.00,018.6,018.1,000.0,027.0,020.4,12.6,0000.0,0004.81,0003.27,0002.87
2024-02-13 08:13:00,SystemResetWarning,0825.6,5.01,000.00,018.6,018.1,000.0,027.0,020.4,12.5,0000.0,0004.37,0003.02,0002.55
2024-02-13 08:14:00,SystemResetWarning,0825.5,5.01,000.00,018.6,018.1,000.0,027.0,020.4,12.6,0000.0,0004.12,0002.73,0002.27
2024-02-13 08:15:00,SystemResetWarning,0825.3,5.00,000.00,018.6,018.1,000.0,027.0,020.4,12.5,0000.0,0005.15,0002.49,0002.07
2024-02-13 08:16:00,SystemResetWarning,0825.4,5.00,000.00,018.6,018.2,000.0,027.0,020.4,12.3,0000.0,0005.05,0002.42,0002.02
2024-02-13 08:17:00,SystemResetWarning,0825.5,5.00,000.00,018.6,018.2,000.0,027.0,020.4,12.3,0000.0,0005.10,0002.43,0002.02
2024-02-13 08:18:00,SystemResetWarning,0825.5,4.99,000.00,018.6,018.2,000.0,027.0,020.4,12.5,0000.0,0005.09,0002.42,0002.01
2024-02-13 08:19:00,SystemResetWarning,0825.4,5.00,000.00,018.6,018.2,000.0,027.0,020.4,12.4,0000.0,0005.12,0002.45,0002.03
2024-02-13 08:20:00,SystemResetWarning,0825.5,5.00,000.00,018.6,018.2,000.0,027.0,020.4,12.4,0000.0,0005.38,0002.45,0002.00
2024-02-13 08:21:00,SystemResetWarning,0825.3,5.01,000.00,018.7,018.2,000.0,027.0,020.4,13.6,0000.0,0005.36,0002.31,0001.91
2024-02-13 08:22:00,SystemResetWarning,0825.3,5.00,000.00,018.7,018.2,000.0,027.0,020.4,14.1,0000.0,0005.18,0002.15,0001.76
2024-02-13 08:23:00,SystemResetWarning,0825.3,5.00,000.00,018.7,018.2,000.0,027.0,020.4,12.7,0000.0,0004.85,0002.05,0001.66
2024-02-13 08:24:00,SystemResetWarning,0825.3,4.98,000.00,018.7,018.2,000.0,027.1,020.4,12.3,0000.0,0004.88,0002.06,0001.65
2024-02-13 08:25:00,SystemResetWarning,0825.4,5.00,000.00,018.6,018.2,000.0,027.0,020.3,12.3,0000.0,0004.92,0002.08,0001.66
2024-02-13 08:26:00,SystemResetWarning,0825.3,5.01,000.00,018.6,018.1,000.0,027.0,020.3,12.2,0000.0,0004.15,0002.07,0001.65
2024-02-13 08:27:00,SystemResetWarning,0825.5,5.00,000.00,018.6,018.1,000.0,027.0,020.3,12.4,0000.0,0004.31,0002.22,0001.80
2024-02-13 08:28:00,SystemResetWarning,0825.4,5.01,000.00,018.6,018.1,000.0,027.0,020.3,12.9,0000.0,0004.65,0002.61,0002.21
2024-02-13 08:29:00,SystemResetWarning,0825.6,5.00,000.00,018.6,018.1,000.0,027.0,020.3,13.4,0000.0,0004.93,0002.99,0002.62
2024-02-13 08:30:00,SystemResetWarning,0825.6,4.99,000.00,018.6,018.1,000.0,027.0,020.3,14.3,0000.0,0004.99,0003.06,0002.69
2024-02-13 08:31:00,SystemResetWarning,0825.6,5.00,000.00,018.6,018.0,000.0,027.0,020.3,14.5,0000.0,0004.84,0003.05,0002.67
2024-02-13 08:32:00,SystemResetWarning,0825.6,5.01,000.00,018.6,018.0,000.0,027.0,020.2,14.6,0000.0,0004.57,0002.96,0002.56
2024-02-13 08:33:00,SystemResetWarning,0825.7,5.01,000.00,018.5,018.0,000.0,027.0,020.1,14.7,0000.0,0004.50,0002.90,0002.51
2024-02-13 08:34:00,SystemResetWarning,0825.6,5.01,000.00,018.5,017.9,000.0,027.0,020.1,13.7,0000.0,0004.38,0002.84,0002.47
2024-02-13 08:35:00,SystemResetWarning,0825.6,4.99,000.00,018.5,017.9,000.0,027.0,020.1,13.3,0000.0,0005.43,0002.83,0002.49
2024-02-13 08:36:00,SystemResetWarning,0825.6,4.99,000.00,018.5,017.9,000.0,026.9,020.1,13.8,0000.0,0005.70,0002.99,0002.64
2024-02-13 08:37:00,SystemResetWarning,0825.8,5.01,000.00,018.5,017.8,000.0,026.9,020.1,14.3,0000.0,0006.68,0003.19,0002.90
2024-02-13 08:38:00,SystemResetWarning,0825.7,5.01,000.00,018.4,017.8,000.0,026.9,020.1,14.8,0000.0,0007.15,0003.32,0003.12
2024-02-13 08:39:00,SystemResetWarning,0825.8,5.01,000.00,018.4,017.8,000.0,026.9,020.0,14.9,0000.0,0007.35,0003.33,0003.10
2024-02-13 08:40:00,SystemResetWarning,0825.9,5.01,000.00,018.4,017.8,000.0,026.9,020.0,15.1,0000.0,0007.41,0003.26,0002.97
2024-02-13 08:41:00,SystemResetWarning,0825.9,5.00,000.00,018.4,017.7,000.0,026.9,020.0,15.1,0000.0,0007.70,0003.29,0003.04
2024-02-13 08:42:00,SystemResetWarning,0825.9,5.00,000.00,018.4,017.7,000.0,026.9,020.0,15.1,0000.0,0007.74,0003.37,0003.17
2024-02-13 08:43:00,SystemResetWarning,0825.8,5.00,000.00,018.4,017.7,000.0,026.9,020.0,14.8,0000.0,0007.99,0003.63,0003.43
2024-02-13 08:44:00,SystemResetWarning,0825.9,5.00,000.00,018.4,017.7,000.0,026.9,020.0,14.7,0000.0,0008.28,0003.89,0003.69
2024-02-13 08:45:00,SystemResetWarning,0825.9,5.00,000.00,018.4,017.7,000.0,026.9,020.0,14.8,0000.0,0009.31,0004.24,0004.00
2024-02-13 08:46:00,SystemResetWarning,0825.9,5.00,000.00,018.4,017.7,000.0,026.9,020.0,14.9,0000.0,0008.97,0004.53,0004.28
2024-02-13 08:47:00,SystemResetWarning,0825.9,4.99,000.00,018.4,017.7,000.0,026.9,020.0,14.8,0000.0,0009.14,0004.75,0004.51
2024-02-13 08:48:00,SystemResetWarning,0825.7,5.00,000.00,018.3,017.7,000.0,026.9,020.0,14.2,0000.0,0009.02,0004.93,0004.68
2024-02-13 08:49:00,SystemResetWarning,0825.7,5.00,000.00,018.3,017.7,000.0,026.9,020.0,14.0,0000.0,0009.53,0005.08,0004.82
2024-02-13 08:50:00,SystemResetWarning,0825.7,5.00,000.00,018.3,017.7,000.0,026.9,020.0,14.6,0000.0,0009.80,0005.14,0004.90
2024-02-13 08:51:00,SystemResetWarning,0825.7,5.00,000.00,018.3,017.7,000.0,026.9,020.0,14.1,0000.0,0009.82,0005.25,0005.01
2024-02-13 08:52:00,SystemResetWarning,0825.6,5.01,000.00,018.3,017.7,000.0,026.8,020.0,13.0,0000.0,0009.73,0005.44,0005.18
2024-02-13 08:53:00,SystemResetWarning,0825.7,5.01,000.00,018.3,017.7,000.0,026.9,020.0,12.2,0000.0,0010.27,0005.62,0005.35
2024-02-13 08:54:00,SystemResetWarning,0825.8,5.00,000.00,018.3,017.7,000.0,026.9,020.0,12.7,0000.0,0011.06,0005.70,0005.41
2024-02-13 08:55:00,SystemResetWarning,0825.7,5.00,000.00,018.3,017.7,000.0,026.9,020.0,12.4,0000.0,0011.10,0005.69,0005.37
2024-02-13 08:56:00,SystemResetWarning,0825.7,4.99,000.00,018.3,017.7,000.0,026.8,020.0,12.4,0000.0,0010.44,0005.64,0005.33
2024-02-13 08:57:00,SystemResetWarning,0825.7,4.99,000.00,018.3,017.7,000.0,026.8,020.0,13.7,0000.0,0010.41,0005.60,0005.29
2024-02-13 08:58:00,SystemResetWarning,0825.6,5.00,000.00,018.3,017.7,000.0,026.8,020.0,14.2,0000.0,0010.32,0005.49,0005.17
2024-02-13 08:59:00,SystemResetWarning,0825.7,4.99,000.00,018.3,017.7,000.0,026.8,020.0,13.6,0000.0,0009.78,0005.16,0004.86
